QA45 YSSY-YBBN

Flight info

Callsign QA45
Flight time 1h 18m
Altitude 37000
Route KEVIN7 OLSEM Y193 BANDA H252 BN DCT
Aircraft B737/M-V/N

Departure

Time 2026-04-21 02:21
Airport Sydney Kingsford Smith International Airport (YSSY)

Arrival

Time 2026-04-21 03:40
Airport Brisbane International Airport (YBBN)
Time Latitude Longitude Altitude Speed Heading
2026-04-21 01:59 -33.93306 151.17684 31 ft 0 kts 89°
2026-04-21 02:08 -33.93306 151.17677 31 ft 0 kts 89°
2026-04-21 02:09 -33.93306 151.17672 31 ft 2 kts 89°
2026-04-21 02:09 -33.93306 151.17659 30 ft 2 kts 89°
2026-04-21 02:09 -33.93306 151.17642 28 ft 2 kts 89°
2026-04-21 02:09 -33.93307 151.17623 28 ft 3 kts 89°
2026-04-21 02:10 -33.93307 151.17601 28 ft 3 kts 94°
2026-04-21 02:10 -33.93302 151.17580 31 ft 3 kts 130°
2026-04-21 02:10 -33.93288 151.17568 27 ft 0 kts 166°
2026-04-21 02:13 -33.93289 151.17568 27 ft 2 kts 166°
2026-04-21 02:13 -33.93333 151.17577 31 ft 10 kts 182°
2026-04-21 02:13 -33.93407 151.17511 22 ft 19 kts 203°
2026-04-21 02:14 -33.93524 151.17511 19 ft 18 kts 167°
2026-04-21 02:14 -33.93660 151.17547 18 ft 21 kts 167°
2026-04-21 02:14 -33.93802 151.17585 19 ft 21 kts 167°
2026-04-21 02:14 -33.93949 151.17623 20 ft 21 kts 168°
2026-04-21 02:15 -33.94089 151.17660 23 ft 20 kts 166°
2026-04-21 02:15 -33.94228 151.17702 22 ft 21 kts 165°
2026-04-21 02:15 -33.94368 151.17747 27 ft 20 kts 165°
2026-04-21 02:15 -33.94491 151.17810 25 ft 19 kts 124°
2026-04-21 02:16 -33.94571 151.17895 27 ft 11 kts 167°
2026-04-21 02:16 -33.94632 151.17912 27 ft 11 kts 168°
2026-04-21 02:16 -33.94730 151.17937 26 ft 17 kts 168°
2026-04-21 02:16 -33.94861 151.17970 21 ft 21 kts 168°
2026-04-21 02:17 -33.95004 151.18007 29 ft 21 kts 168°
2026-04-21 02:17 -33.95102 151.18082 27 ft 15 kts 97°
2026-04-21 02:17 -33.95082 151.18221 26 ft 18 kts 77°
2026-04-21 02:17 -33.95054 151.18375 27 ft 19 kts 77°
2026-04-21 02:18 -33.95024 151.18538 27 ft 20 kts 77°
2026-04-21 02:18 -33.94996 151.18699 25 ft 11 kts 78°
2026-04-21 02:18 -33.94993 151.18717 25 ft 0 kts 79°
2026-04-21 02:19 -33.94991 151.18728 25 ft 5 kts 78°
2026-04-21 02:19 -33.94998 151.18813 27 ft 15 kts 121°
2026-04-21 02:19 -33.95106 151.18870 28 ft 19 kts 167°
2026-04-21 02:19 -33.95194 151.18893 24 ft 0 kts 168°
2026-04-21 02:20 -33.95223 151.18900 22 ft 15 kts 168°
2026-04-21 02:20 -33.95497 151.18972 26 ft 65 kts 168°
2026-04-21 02:21 -33.96083 151.19123 30 ft 108 kts 168°
2026-04-21 02:21 -33.96930 151.19336 100 ft 133 kts 169°
2026-04-21 02:21 -33.97834 151.19547 469 ft 129 kts 171°
2026-04-21 02:21 -33.98678 151.19766 904 ft 124 kts 167°
2026-04-21 02:22 -33.99546 151.20070 1081 ft 139 kts 160°
2026-04-21 02:22 -34.00479 151.20602 1250 ft 154 kts 141°
2026-04-21 02:22 -34.00956 151.21746 1696 ft 167 kts 99°
2026-04-21 02:22 -34.00780 151.23167 2142 ft 174 kts 81°
2026-04-21 02:23 -34.00708 151.24604 2345 ft 174 kts 121°
2026-04-21 02:23 -34.01481 151.25614 2848 ft 162 kts 140°
2026-04-21 02:23 -34.02372 151.26614 3034 ft 187 kts 140°
2026-04-21 02:23 -34.03332 151.27669 3680 ft 184 kts 141°
2026-04-21 02:24 -34.04306 151.28700 4158 ft 192 kts 142°
2026-04-21 02:24 -34.05384 151.29797 4395 ft 212 kts 143°
2026-04-21 02:24 -34.06519 151.30931 5105 ft 209 kts 143°
2026-04-21 02:24 -34.07629 151.32061 5650 ft 216 kts 142°
2026-04-21 02:25 -34.08818 151.33281 5963 ft 234 kts 141°
2026-04-21 02:25 -34.10062 151.34631 6415 ft 244 kts 142°
2026-04-21 02:25 -34.11293 151.36089 6969 ft 252 kts 134°
2026-04-21 02:25 -34.12010 151.38054 7482 ft 267 kts 96°
2026-04-21 02:26 -34.11602 151.40262 8093 ft 280 kts 60°
2026-04-21 02:26 -34.10276 151.42021 8703 ft 288 kts 44°
2026-04-21 02:26 -34.08770 151.43638 9289 ft 292 kts 47°
2026-04-21 02:26 -34.07352 151.45407 9893 ft 294 kts 50°
2026-04-21 02:27 -34.05760 151.46972 10499 ft 301 kts 27°
2026-04-21 02:27 -34.03770 151.47817 11071 ft 305 kts 18°
2026-04-21 02:27 -34.01731 151.48486 11630 ft 308 kts 15°
2026-04-21 02:27 -33.99643 151.49121 12211 ft 311 kts 16°
2026-04-21 02:28 -33.97547 151.49800 12781 ft 313 kts 17°
2026-04-21 02:28 -33.95445 151.50507 13376 ft 315 kts 16°
2026-04-21 02:28 -33.93327 151.51206 13974 ft 316 kts 15°
2026-04-21 02:28 -33.91199 151.51897 14524 ft 317 kts 16°
2026-04-21 02:29 -33.89065 151.52591 15059 ft 317 kts 16°
2026-04-21 02:29 -33.86929 151.53291 15606 ft 317 kts 16°
2026-04-21 02:29 -33.84800 151.53989 16158 ft 317 kts 16°
2026-04-21 02:29 -33.82674 151.54683 16716 ft 316 kts 16°
2026-04-21 02:30 -33.80557 151.55373 17279 ft 314 kts 16°
2026-04-21 02:30 -33.78457 151.56058 17858 ft 312 kts 16°
2026-04-21 02:30 -33.76372 151.56738 18441 ft 309 kts 16°
2026-04-21 02:30 -33.74310 151.57410 18966 ft 305 kts 16°
2026-04-21 02:31 -33.72275 151.58072 19472 ft 301 kts 16°
2026-04-21 02:31 -33.70276 151.58723 19973 ft 295 kts 16°
2026-04-21 02:31 -33.68317 151.59361 20483 ft 288 kts 17°
2026-04-21 02:31 -33.66412 151.59985 20983 ft 279 kts 17°
2026-04-21 02:32 -33.64605 151.60676 21353 ft 272 kts 36°
2026-04-21 02:32 -33.63011 151.61843 21627 ft 266 kts 38°
2026-04-21 02:32 -33.61479 151.63089 21835 ft 267 kts 38°
2026-04-21 02:32 -33.60949 151.63522 21923 ft 266 kts 38°
2026-04-21 02:33 -33.59411 151.64748 22135 ft 267 kts 37°
2026-04-21 02:33 -33.57847 151.65968 22263 ft 270 kts 37°
2026-04-21 02:33 -33.56267 151.67203 22402 ft 272 kts 37°
2026-04-21 02:33 -33.54673 151.68455 22548 ft 276 kts 37°
2026-04-21 02:34 -33.53057 151.69726 22665 ft 280 kts 37°
2026-04-21 02:34 -33.51421 151.71010 22831 ft 283 kts 37°
2026-04-21 02:34 -33.49754 151.72291 23002 ft 287 kts 29°
2026-04-21 02:34 -33.47867 151.73107 23199 ft 289 kts 18°
2026-04-21 02:35 -33.45913 151.73729 23355 ft 292 kts 16°
2026-04-21 02:35 -33.43925 151.74334 23472 ft 298 kts 17°
2026-04-21 02:35 -33.41908 151.74987 23480 ft 309 kts 17°
2026-04-21 02:35 -33.39801 151.75684 23557 ft 317 kts 17°
2026-04-21 02:36 -33.37642 151.76385 23713 ft 324 kts 17°
2026-04-21 02:36 -33.35435 151.77092 23865 ft 332 kts 17°
2026-04-21 02:36 -33.33177 151.77821 23988 ft 340 kts 17°
2026-04-21 02:36 -33.30867 151.78570 24117 ft 348 kts 17°
2026-04-21 02:37 -33.28501 151.79335 24234 ft 356 kts 17°
2026-04-21 02:37 -33.26091 151.80111 24424 ft 362 kts 17°
2026-04-21 02:37 -33.23657 151.80895 24670 ft 363 kts 17°
2026-04-21 02:37 -33.21196 151.81690 24827 ft 369 kts 17°
2026-04-21 02:38 -33.18704 151.82494 24810 ft 381 kts 17°
2026-04-21 02:38 -33.16099 151.83333 24813 ft 394 kts 17°
2026-04-21 02:38 -33.13408 151.84198 24815 ft 407 kts 16°
2026-04-21 02:38 -33.10636 151.85089 24899 ft 411 kts 16°
2026-04-21 02:39 -33.07883 151.85972 25156 ft 409 kts 16°
2026-04-21 02:39 -33.05126 151.86858 25367 ft 412 kts 16°
2026-04-21 02:39 -33.02345 151.87752 25649 ft 416 kts 16°
2026-04-21 02:39 -33.00488 151.88348 25837 ft 418 kts 16°
2026-04-21 02:40 -32.97665 151.89252 26130 ft 422 kts 16°
2026-04-21 02:40 -32.94822 151.90162 26418 ft 425 kts 16°
2026-04-21 02:40 -32.90984 151.91392 26793 ft 429 kts 16°
2026-04-21 02:40 -32.89067 151.92005 26974 ft 430 kts 16°
2026-04-21 02:41 -32.86162 151.92934 27271 ft 433 kts 16°
2026-04-21 02:41 -32.83240 151.93867 27575 ft 436 kts 16°
2026-04-21 02:41 -32.80300 151.94806 27868 ft 438 kts 16°
2026-04-21 02:41 -32.77346 151.95749 28152 ft 441 kts 16°
2026-04-21 02:42 -32.74369 151.96698 28430 ft 443 kts 16°
2026-04-21 02:42 -32.71385 151.97649 28709 ft 446 kts 16°
2026-04-21 02:42 -32.68417 151.98594 28987 ft 448 kts 16°
2026-04-21 02:42 -32.65401 151.99553 29270 ft 450 kts 16°
2026-04-21 02:43 -32.62369 152.00518 29546 ft 452 kts 16°
2026-04-21 02:43 -32.59321 152.01486 29818 ft 454 kts 16°
2026-04-21 02:43 -32.56246 152.02463 30091 ft 457 kts 16°
2026-04-21 02:43 -32.53168 152.03439 30347 ft 459 kts 16°
2026-04-21 02:44 -32.50078 152.04419 30584 ft 461 kts 16°
2026-04-21 02:44 -32.46971 152.05404 30807 ft 463 kts 16°
2026-04-21 02:44 -32.43853 152.06391 31027 ft 465 kts 16°
2026-04-21 02:44 -32.40718 152.07383 31256 ft 467 kts 16°
2026-04-21 02:45 -32.37571 152.08378 31466 ft 469 kts 16°
2026-04-21 02:45 -32.34408 152.09377 31684 ft 471 kts 16°
2026-04-21 02:45 -32.31226 152.10381 31908 ft 473 kts 15°
2026-04-21 02:45 -32.28041 152.11386 32129 ft 475 kts 15°
2026-04-21 02:46 -32.24876 152.12384 32344 ft 477 kts 15°
2026-04-21 02:46 -32.21662 152.13397 32554 ft 479 kts 15°
2026-04-21 02:46 -32.18438 152.14412 32762 ft 481 kts 15°
2026-04-21 02:46 -32.15198 152.15431 32977 ft 483 kts 15°
2026-04-21 02:47 -32.11947 152.16453 33178 ft 484 kts 15°
2026-04-21 02:47 -32.08682 152.17478 33380 ft 486 kts 15°
2026-04-21 02:47 -32.05407 152.18506 33586 ft 488 kts 15°
2026-04-21 02:47 -32.02114 152.19539 33788 ft 490 kts 15°
2026-04-21 02:48 -31.98808 152.20575 33993 ft 492 kts 15°
2026-04-21 02:48 -31.95494 152.21613 34185 ft 494 kts 15°
2026-04-21 02:48 -31.92171 152.22653 34395 ft 495 kts 15°
2026-04-21 02:48 -31.88868 152.23686 34558 ft 497 kts 15°
2026-04-21 02:49 -31.85518 152.24732 34730 ft 499 kts 15°
2026-04-21 02:49 -31.82153 152.25783 34900 ft 501 kts 15°
2026-04-21 02:49 -31.78776 152.26837 35071 ft 502 kts 15°
2026-04-21 02:49 -31.75391 152.27892 35228 ft 504 kts 15°
2026-04-21 02:50 -31.71989 152.28951 35392 ft 506 kts 15°
2026-04-21 02:50 -31.68576 152.30014 35565 ft 507 kts 15°
2026-04-21 02:50 -31.65161 152.31076 35732 ft 509 kts 15°
2026-04-21 02:50 -31.61765 152.32132 35901 ft 510 kts 14°
2026-04-21 02:51 -31.58325 152.33200 36061 ft 512 kts 14°
2026-04-21 02:51 -31.54886 152.34267 36314 ft 511 kts 14°
2026-04-21 02:51 -31.51402 152.35348 36538 ft 511 kts 14°
2026-04-21 02:51 -31.47999 152.36402 36746 ft 512 kts 14°
2026-04-21 02:52 -31.44558 152.37467 36950 ft 512 kts 14°
2026-04-21 02:52 -31.41117 152.38532 37149 ft 512 kts 14°
2026-04-21 02:52 -31.37674 152.39597 37276 ft 510 kts 14°
2026-04-21 02:52 -31.34275 152.40647 37257 ft 498 kts 14°
2026-04-21 02:53 -31.30960 152.41671 37259 ft 486 kts 14°
2026-04-21 02:53 -31.24431 152.43683 37268 ft 487 kts 14°
2026-04-21 02:54 -31.17897 152.45696 37258 ft 488 kts 14°
2026-04-21 02:54 -31.11322 152.47718 37264 ft 488 kts 14°
2026-04-21 02:55 -31.04750 152.49734 37264 ft 488 kts 14°
2026-04-21 02:55 -30.98159 152.51756 37261 ft 489 kts 14°
2026-04-21 02:56 -30.91574 152.53772 37265 ft 489 kts 14°
2026-04-21 02:56 -30.81740 152.56778 37255 ft 489 kts 14°
2026-04-21 02:57 -30.75214 152.59074 37262 ft 489 kts 17°
2026-04-21 02:57 -30.68699 152.61395 37263 ft 489 kts 17°
2026-04-21 02:58 -30.62237 152.63765 37259 ft 490 kts 17°
2026-04-21 02:58 -30.55724 152.66107 37254 ft 489 kts 17°
2026-04-21 02:59 -30.49225 152.68466 37250 ft 489 kts 17°
2026-04-21 02:59 -30.42757 152.70797 37251 ft 489 kts 17°
2026-04-21 03:00 -30.36251 152.73144 37248 ft 489 kts 17°
2026-04-21 03:00 -30.29744 152.75487 37249 ft 489 kts 17°
2026-04-21 03:01 -30.23234 152.77826 37245 ft 489 kts 17°
2026-04-21 03:01 -30.16735 152.80161 37247 ft 489 kts 16°
2026-04-21 03:02 -30.10220 152.82496 37242 ft 491 kts 17°
2026-04-21 03:02 -30.06944 152.83669 37053 ft 494 kts 17°
2026-04-21 03:02 -30.03702 152.84830 36787 ft 491 kts 17°
2026-04-21 03:03 -30.00444 152.85995 36524 ft 489 kts 17°
2026-04-21 03:03 -29.97188 152.87159 36223 ft 489 kts 17°
2026-04-21 03:03 -29.93936 152.88320 35929 ft 489 kts 17°
2026-04-21 03:03 -29.90676 152.89484 35643 ft 491 kts 17°
2026-04-21 03:04 -29.87408 152.90649 35357 ft 492 kts 17°
2026-04-21 03:04 -29.84124 152.91819 35075 ft 492 kts 17°
2026-04-21 03:04 -29.80850 152.92985 34800 ft 492 kts 17°
2026-04-21 03:04 -29.77570 152.94153 34528 ft 493 kts 17°
2026-04-21 03:05 -29.74328 152.95306 34259 ft 493 kts 18°
2026-04-21 03:05 -29.71039 152.96475 33954 ft 494 kts 18°
2026-04-21 03:05 -29.67751 152.97643 33626 ft 494 kts 18°
2026-04-21 03:05 -29.64459 152.98811 33321 ft 495 kts 18°
2026-04-21 03:06 -29.61162 152.99980 33021 ft 496 kts 18°
2026-04-21 03:06 -29.57864 153.01149 32728 ft 496 kts 18°
2026-04-21 03:06 -29.54552 153.02322 32434 ft 498 kts 18°
2026-04-21 03:06 -29.51241 153.03494 32137 ft 497 kts 18°
2026-04-21 03:07 -29.47942 153.04660 31842 ft 495 kts 18°
2026-04-21 03:07 -29.44701 153.05806 31548 ft 493 kts 18°
2026-04-21 03:07 -29.41423 153.06964 31251 ft 491 kts 18°
2026-04-21 03:07 -29.38166 153.08114 30962 ft 489 kts 18°
2026-04-21 03:08 -29.34920 153.09259 30674 ft 487 kts 18°
2026-04-21 03:08 -29.31684 153.10399 30334 ft 486 kts 18°
2026-04-21 03:08 -29.28459 153.11535 29944 ft 482 kts 18°
2026-04-21 03:08 -29.25265 153.12660 29554 ft 478 kts 18°
2026-04-21 03:09 -29.22097 153.13776 29195 ft 474 kts 18°
2026-04-21 03:09 -29.18953 153.14882 28810 ft 471 kts 18°
2026-04-21 03:09 -29.15823 153.15982 28437 ft 469 kts 18°
2026-04-21 03:09 -29.12707 153.17077 28068 ft 466 kts 18°
2026-04-21 03:10 -29.09653 153.18149 27707 ft 463 kts 18°
2026-04-21 03:10 -29.06579 153.19228 27350 ft 460 kts 18°
2026-04-21 03:10 -29.03533 153.20296 26997 ft 457 kts 18°
2026-04-21 03:10 -29.00497 153.21360 26647 ft 454 kts 18°
2026-04-21 03:11 -28.97490 153.22414 26305 ft 450 kts 18°
2026-04-21 03:11 -28.94503 153.23459 25955 ft 447 kts 18°
2026-04-21 03:11 -28.91539 153.24496 25618 ft 444 kts 18°
2026-04-21 03:11 -28.88594 153.25526 25285 ft 441 kts 18°
2026-04-21 03:12 -28.85660 153.26551 24952 ft 438 kts 18°
2026-04-21 03:12 -28.82752 153.27566 24627 ft 436 kts 18°
2026-04-21 03:12 -28.79863 153.28575 24307 ft 433 kts 18°
2026-04-21 03:12 -28.76988 153.29577 23986 ft 430 kts 18°
2026-04-21 03:13 -28.74136 153.30572 23644 ft 427 kts 18°
2026-04-21 03:13 -28.71342 153.31545 23267 ft 423 kts 18°
2026-04-21 03:13 -28.68543 153.32520 22889 ft 419 kts 18°
2026-04-21 03:13 -28.65759 153.33488 22516 ft 415 kts 18°
2026-04-21 03:14 -28.62999 153.34449 22146 ft 412 kts 18°
2026-04-21 03:14 -28.60275 153.35395 21782 ft 408 kts 18°
2026-04-21 03:14 -28.57566 153.36337 21424 ft 405 kts 18°
2026-04-21 03:14 -28.54884 153.37269 21070 ft 401 kts 18°
2026-04-21 03:15 -28.52217 153.38194 20674 ft 399 kts 18°
2026-04-21 03:15 -28.49563 153.39115 20282 ft 397 kts 18°
2026-04-21 03:15 -28.46929 153.40028 19892 ft 395 kts 18°
2026-04-21 03:15 -28.44337 153.40926 19518 ft 393 kts 18°
2026-04-21 03:16 -28.41723 153.41831 19134 ft 391 kts 18°
2026-04-21 03:16 -28.39128 153.42730 18766 ft 389 kts 19°
2026-04-21 03:16 -28.36540 153.43625 18333 ft 389 kts 19°
2026-04-21 03:16 -28.33950 153.44520 17864 ft 388 kts 18°
2026-04-21 03:17 -28.31374 153.45411 17394 ft 387 kts 19°
2026-04-21 03:17 -28.28798 153.46299 16940 ft 386 kts 16°
2026-04-21 03:17 -28.26136 153.46553 16540 ft 385 kts 356°
2026-04-21 03:17 -28.23486 153.46773 16122 ft 381 kts 14°
2026-04-21 03:18 -28.20956 153.47655 15695 ft 379 kts 21°
2026-04-21 03:18 -28.18504 153.48744 15270 ft 378 kts 25°
2026-04-21 03:18 -28.16088 153.49897 14849 ft 376 kts 25°
2026-04-21 03:18 -28.13688 153.51064 14432 ft 375 kts 22°
2026-04-21 03:19 -28.11144 153.51597 14044 ft 374 kts 356°
2026-04-21 03:19 -28.08614 153.50978 13631 ft 371 kts 337°
2026-04-21 03:19 -28.06295 153.49734 13189 ft 368 kts 329°
2026-04-21 03:19 -28.04076 153.48297 12737 ft 366 kts 327°
2026-04-21 03:20 -28.01816 153.46988 12299 ft 366 kts 339°
2026-04-21 03:20 -27.99381 153.46169 11865 ft 365 kts 346°
2026-04-21 03:20 -27.96932 153.45559 11437 ft 364 kts 350°
2026-04-21 03:20 -27.94426 153.45215 11013 ft 360 kts 355°
2026-04-21 03:21 -27.91940 153.44953 10575 ft 357 kts 353°
2026-04-21 03:21 -27.89483 153.44598 10138 ft 354 kts 352°
2026-04-21 03:21 -27.87052 153.44214 9673 ft 350 kts 352°
2026-04-21 03:21 -27.84664 153.43835 9190 ft 343 kts 352°
2026-04-21 03:22 -27.82350 153.43458 8721 ft 336 kts 351°
2026-04-21 03:22 -27.80063 153.43030 8257 ft 330 kts 349°
2026-04-21 03:22 -27.77825 153.42584 7803 ft 324 kts 349°
2026-04-21 03:22 -27.75619 153.42139 7347 ft 317 kts 349°
2026-04-21 03:23 -27.73473 153.41704 6914 ft 309 kts 349°
2026-04-21 03:23 -27.71395 153.41281 6552 ft 295 kts 349°
2026-04-21 03:23 -27.69465 153.40886 6220 ft 274 kts 349°
2026-04-21 03:23 -27.67615 153.40504 5859 ft 267 kts 349°
2026-04-21 03:24 -27.65785 153.40122 5497 ft 268 kts 349°
2026-04-21 03:24 -27.63962 153.39801 5133 ft 265 kts 355°
2026-04-21 03:24 -27.62114 153.39748 4868 ft 264 kts
2026-04-21 03:24 -27.60329 153.39782 4608 ft 246 kts
2026-04-21 03:25 -27.58657 153.39824 4361 ft 243 kts
2026-04-21 03:25 -27.56982 153.39866 4191 ft 236 kts
2026-04-21 03:25 -27.55319 153.39908 4194 ft 240 kts
2026-04-21 03:25 -27.54204 153.39937 4198 ft 245 kts
2026-04-21 03:26 -27.52469 153.39984 4199 ft 254 kts
2026-04-21 03:26 -27.50677 153.40033 4198 ft 261 kts
2026-04-21 03:26 -27.48885 153.40086 4195 ft 256 kts
2026-04-21 03:26 -27.47106 153.40150 4197 ft 257 kts
2026-04-21 03:27 -27.45327 153.40229 4196 ft 256 kts
2026-04-21 03:27 -27.43535 153.40305 4192 ft 258 kts
2026-04-21 03:27 -27.41760 153.40377 4189 ft 255 kts
2026-04-21 03:27 -27.40044 153.40445 4171 ft 237 kts
2026-04-21 03:28 -27.38424 153.40507 4180 ft 236 kts
2026-04-21 03:28 -27.36795 153.40572 4176 ft 234 kts
2026-04-21 03:28 -27.35167 153.40640 4180 ft 230 kts
2026-04-21 03:28 -27.33548 153.40703 4173 ft 231 kts
2026-04-21 03:29 -27.31933 153.40767 4187 ft 234 kts
2026-04-21 03:29 -27.30320 153.40826 4182 ft 234 kts
2026-04-21 03:29 -27.28701 153.40885 4181 ft 231 kts
2026-04-21 03:29 -27.27076 153.40944 4181 ft 233 kts
2026-04-21 03:30 -27.25479 153.41001 4179 ft 232 kts
2026-04-21 03:30 -27.23856 153.41068 4180 ft 234 kts
2026-04-21 03:30 -27.22246 153.41132 4182 ft 234 kts
2026-04-21 03:30 -27.20660 153.40937 4203 ft 229 kts 340°
2026-04-21 03:31 -27.19169 153.40201 4145 ft 232 kts 333°
2026-04-21 03:31 -27.17714 153.39398 4075 ft 235 kts 332°
2026-04-21 03:31 -27.16309 153.38496 3999 ft 232 kts 325°
2026-04-21 03:31 -27.14988 153.37482 3923 ft 230 kts 320°
2026-04-21 03:32 -27.13795 153.36322 3837 ft 221 kts 311°
2026-04-21 03:32 -27.13006 153.34927 3760 ft 214 kts 275°
2026-04-21 03:32 -27.12918 153.33281 3690 ft 203 kts 262°
2026-04-21 03:32 -27.13158 153.31765 3617 ft 199 kts 246°
2026-04-21 03:33 -27.13641 153.30345 3539 ft 192 kts 240°
2026-04-21 03:33 -27.14172 153.28978 3462 ft 191 kts 239°
2026-04-21 03:33 -27.14760 153.27651 3381 ft 189 kts 236°
2026-04-21 03:33 -27.15446 153.26414 3295 ft 184 kts 227°
2026-04-21 03:34 -27.16330 153.25413 3186 ft 178 kts 211°
2026-04-21 03:34 -27.17343 153.24653 3084 ft 175 kts 206°
2026-04-21 03:34 -27.18426 153.24012 2981 ft 174 kts 203°
2026-04-21 03:34 -27.19512 153.23424 2799 ft 176 kts 202°
2026-04-21 03:35 -27.20583 153.22818 2678 ft 169 kts 204°
2026-04-21 03:35 -27.21591 153.22212 2562 ft 158 kts 202°
2026-04-21 03:35 -27.22593 153.21706 2270 ft 157 kts 199°
2026-04-21 03:35 -27.23580 153.21225 2114 ft 153 kts 200°
2026-04-21 03:36 -27.24554 153.20678 1840 ft 159 kts 205°
2026-04-21 03:36 -27.25535 153.20092 1695 ft 160 kts 205°
2026-04-21 03:36 -27.26529 153.19523 1558 ft 160 kts 200°
2026-04-21 03:36 -27.27545 153.18998 1449 ft 160 kts 202°
2026-04-21 03:37 -27.28509 153.18471 1361 ft 154 kts 201°
2026-04-21 03:37 -27.29463 153.17942 1220 ft 150 kts 201°
2026-04-21 03:37 -27.30383 153.17446 1101 ft 146 kts 200°
2026-04-21 03:37 -27.31326 153.16960 894 ft 149 kts 201°
2026-04-21 03:38 -27.32261 153.16460 732 ft 149 kts 199°
2026-04-21 03:38 -27.33139 153.15935 739 ft 138 kts 206°
2026-04-21 03:38 -27.33966 153.15428 642 ft 131 kts 201°
2026-04-21 03:38 -27.34777 153.14972 468 ft 132 kts 201°
2026-04-21 03:39 -27.35634 153.14496 407 ft 139 kts 201°
2026-04-21 03:39 -27.36509 153.13994 276 ft 146 kts 205°
2026-04-21 03:39 -27.37411 153.13475 87 ft 144 kts 206°
2026-04-21 03:39 -27.38226 153.13002 22 ft 109 kts 207°
2026-04-21 03:40 -27.38717 153.12719 20 ft 56 kts 207°
2026-04-21 03:40 -27.38947 153.12535 19 ft 33 kts 226°
2026-04-21 03:40 -27.39061 153.12362 19 ft 23 kts 237°
2026-04-21 03:40 -27.39132 153.12226 20 ft 14 kts 254°
2026-04-21 03:41 -27.39084 153.12151 21 ft 13 kts 357°
2026-04-21 03:41 -27.39002 153.12186 19 ft 13 kts 28°
2026-04-21 03:41 -27.38916 153.12209 19 ft 14 kts 340°
2026-04-21 03:41 -27.38843 153.12137 19 ft 14 kts 320°
2026-04-21 03:42 -27.38814 153.12067 19 ft 8 kts 294°
2026-04-21 03:42 -27.38785 153.12042 19 ft 3 kts 328°
2026-04-21 03:42 -27.38774 153.12015 19 ft 5 kts 284°
2026-04-21 03:42 -27.38756 153.11966 19 ft 7 kts 318°
2026-04-21 03:43 -27.38734 153.11955 19 ft 0 kts 347°
2026-04-21 03:43 -27.38730 153.11954 19 ft 1 kts 348°
2026-04-21 03:43 -27.38728 153.11954 19 ft 0 kts 348°